Location: Theydon Bois
(51.6750°N, 0.1050°E)
Time: 08:16:26
(UTC+01:00)

ISS - Visible Passes

Search period start: 10 May 2021 00:00
Search period end: 20 May 2021 00:00
Orbit: 417 x 421 km, 51.6° (Epoch: 10 May)

Date Brightness Start Highest point End Pass type
(mag) Time Alt. Az. Time Alt. Az. Time Alt. Az.
10 May -3.3 01:50:22 50° ESE 01:50:22 50° ESE 01:53:06 10° E visible
10 May -3.8 03:23:18 11° W 03:26:32 89° N 03:29:56 10° E visible
11 May -1.8 01:04:20 21° E 01:04:20 21° E 01:05:39 10° E visible
11 May -3.8 02:37:16 25° W 02:39:05 88° N 02:42:29 10° E visible
11 May -3.7 04:12:32 10° W 04:15:52 61° SSW 04:19:13 10° ESE visible
12 May -3.9 01:51:11 64° WSW 01:51:39 87° S 01:55:02 10° E visible
12 May -3.9 03:25:05 10° W 03:28:28 75° SSW 03:31:51 10° ESE visible
13 May -3.2 01:05:01 48° E 01:05:01 48° E 01:07:35 10° E visible
13 May -3.9 02:37:56 12° W 02:41:02 85° S 02:44:25 10° E visible
13 May -3.1 04:14:32 10° W 04:17:40 35° SSW 04:20:47 10° SE visible
14 May -2.2 00:18:37 24° E 00:18:37 24° E 00:20:09 10° E visible
14 May -3.8 01:51:30 22° W 01:53:35 89° N 01:56:59 10° E visible
14 May -3.5 03:27:02 10° W 03:30:18 47° SSW 03:33:35 10° SE visible
14 May -2.0 21:51:16 10° S 21:53:08 14° SE 21:55:01 10° ESE visible
14 May -3.7 23:26:06 10° SW 23:29:23 51° SSE 23:32:41 10° E visible
15 May -3.8 01:02:45 10° W 01:06:08 88° N 01:09:31 10° E visible
15 May -3.8 02:39:34 10° W 02:42:55 61° SSW 02:46:16 10° ESE visible
15 May -2.3 04:16:51 10° W 04:19:17 19° SW 04:21:42 10° S visible
15 May -3.3 22:38:52 10° SW 22:42:01 38° SSE 22:45:11 10° E visible
16 May -3.9 00:15:17 10° W 00:18:40 87° S 00:22:04 10° E visible
16 May -3.9 01:52:07 10° W 01:55:30 75° SSW 01:58:52 10° ESE visible
16 May -2.7 03:29:08 10° W 03:32:00 26° SSW 03:34:51 10° SSE visible
16 May -2.8 21:51:46 10° SSW 21:54:41 28° SSE 21:57:38 10° E visible
16 May -3.9 23:27:52 10° WSW 23:31:13 78° SSE 23:34:36 10° E visible
17 May -3.9 01:04:39 10° W 01:08:03 85° SSW 01:11:26 10° E visible
17 May -3.1 02:41:33 10° W 02:45:00 34° SSW 02:47:47 10° SE visible
17 May -3.8 22:40:27 10° WSW 22:43:47 65° SSE 22:47:09 10° E visible
18 May -3.8 00:17:12 10° W 00:20:36 89° NNE 00:22:53 19° E visible
18 May -2.4 01:54:02 10° W 01:55:47 26° W 01:55:47 26° W visible
18 May -3.6 21:53:06 10° SW 21:56:23 51° SSE 21:59:41 10° E visible
18 May -3.8 23:29:44 10° W 23:33:07 88° N 23:36:28 10° E visible
19 May -3.5 01:06:34 10° W 01:09:23 52° WSW 01:09:23 52° WSW visible
19 May -3.8 22:42:17 10° W 22:45:39 87° S 22:49:02 10° E visible
